Weather History for WMKD - December, 2013

Change the Weather History Date:

Monday, December 2, 2013

  Actual Average Record
Temperature  
Mean Temperature 75 °F -  
Max Temperature 76 °F 84 °F - ()
Min Temperature 74 °F 72 °F - ()
Cooling Degree Days 10    
Growing Degree Days 25 (Base 50)    
Moisture  
Dew Point 74 °F    
Average Humidity 94    
Maximum Humidity 100    
Minimum Humidity 89    
Precipitation  
Precipitation 6.06 in 0.72 in - ()
Sea Level Pressure  
Sea Level Pressure 29.79 in    
Wind  
Wind Speed 8 mph ()    
Max Wind Speed 14 mph    
Max Gust Speed -    
Visibility 1.5 miles    
Events Rain    
T = Trace of Precipitation, MM = Missing Value Source: Averaged Metar Reports

Daily Weather History Graph

Daily Weather History Graph

Search for Another Location

Airport or City:

Trip Planner

Search our weather history database for the weather conditions in past years. The results will help you decide how hot, cold, wet, or windy it might be!

Date:

Astronomy

Dec. 02, 2013 Rise Set
Actual Time 6:58 AM MYT 6:54 PM MYT
Civil Twilight 6:36 AM MYT 7:16 PM MYT
Nautical Twilight 6:10 AM MYT 7:42 PM MYT
Astronomical Twilight 5:44 AM MYT 8:08 PM MYT
Moon 6:00 AM MYT (12/2) 6:18 PM MYT (12/2)
Length of Visible Light 12h 39m
Length of Day
11h 55m
Waning Crescent, 1% of the Moon is Illuminated
Dec 2
Waning Crescent
Dec 3
New
Dec 9
First Quarter
Dec 17
Full
Dec 25
Last Quarter

Hourly Weather History & Observations

Time (MYT) Temp. Dew Point Humidity Pressure Visibility Wind Dir Wind Speed Gust Speed Precip Events Conditions
12:00 AM 75.2 °F 73.4 °F 94% 29.86 in 1.6 mi NNW 9.2 mph - N/A Rain Light Rain
1:00 AM 75.2 °F 73.4 °F 94% 29.83 in 2.8 mi NNW 6.9 mph - N/A Rain Light Rain
2:00 AM 75 °F 73 °F 92% 29.80 in 3 mi NNW 11.5 mph - - Rain Light Rain
2:00 AM 75.2 °F 73.4 °F 94% 29.80 in 3.1 mi NNW 11.5 mph - N/A Rain Light Rain
3:00 AM 75.2 °F 73.4 °F 94% 29.77 in 2.8 mi NNW 8.1 mph - N/A Rain Light Rain
4:00 AM 75.2 °F 73.4 °F 94% 29.74 in 2.8 mi NNW 10.4 mph - N/A Rain Light Rain
5:00 AM 75 °F 74 °F 95% 29.75 in 3 mi NNE 8.1 mph - - Rain Light Rain
5:00 AM 75.2 °F 73.4 °F 94% 29.74 in 2.8 mi NNE 8.1 mph - N/A Rain Light Rain
6:00 AM 75.2 °F 73.4 °F 94% 29.77 in 2.8 mi NNW 10.4 mph - N/A Rain Light Rain
7:00 AM 75.2 °F 73.4 °F 94% 29.77 in 2.8 mi NNW 8.1 mph - N/A Rain Light Rain
8:00 AM 76 °F 74 °F 92% 29.79 in 2 mi North 8.1 mph - - Rain Light Rain
8:00 AM 75.2 °F 73.4 °F 94% 29.77 in - North 8.1 mph - N/A Rain Light Rain
9:00 AM 75.2 °F 73.4 °F 94% 29.80 in 0.7 mi NNW 11.5 mph - N/A Rain Rain
10:00 AM 77.0 °F 73.4 °F 89% 29.83 in 6.2 mi NNW 10.4 mph - N/A Rain Light Rain
11:00 AM 76 °F 74 °F 93% 29.84 in 1 mi NNW 10.4 mph - - Rain Rain
11:00 AM 75.2 °F 75.2 °F 100% 29.83 in 1.2 mi NNW 10.4 mph - N/A Rain Rain
12:00 PM 75.2 °F 73.4 °F 94% 29.83 in 0.4 mi NNW 12.7 mph - N/A Rain Rain
1:00 PM 75.2 °F 73.4 °F 94% 29.77 in 1.2 mi NNW 13.8 mph - N/A Rain Rain
2:00 PM 75 °F 74 °F 94% 29.79 in 0 mi NNW 12.7 mph - - Rain Rain
2:00 PM 75.2 °F 73.4 °F 94% 29.77 in 0.4 mi NNW 12.7 mph - N/A Rain Rain
3:00 PM 75.2 °F 73.4 °F 94% 29.74 in 1.2 mi NNW 11.5 mph - N/A Rain Light Rain
4:00 PM 75.2 °F 73.4 °F 94% 29.71 in 1.2 mi NW 11.5 mph - N/A Rain Light Rain
5:00 PM 75 °F 74 °F 95% 29.78 in 0 mi East 3.5 mph - - Rain Heavy Rain
5:00 PM 75.2 °F 73.4 °F 94% 29.77 in 0.4 mi East 3.5 mph - N/A Rain Heavy Rain
6:00 PM 75.2 °F 73.4 °F 94% 29.77 in 0.4 mi WNW 6.9 mph - N/A Rain Rain
7:00 PM 75.2 °F 73.4 °F 94% 29.77 in 0.4 mi West 3.5 mph - N/A Rain Rain
8:00 PM 74 °F 73 °F 97% 29.82 in 0 mi ENE 3.5 mph - - Rain Heavy Rain
8:00 PM 75.2 °F 73.4 °F 94% 29.80 in 0.3 mi ENE 3.5 mph - N/A Rain Heavy Rain
9:00 PM 75.2 °F 73.4 °F 94% 29.83 in 0.4 mi SW 3.5 mph - N/A Rain Rain
10:00 PM 75.2 °F 75.2 °F 100% 29.86 in 0.4 mi North 4.6 mph - N/A Rain Rain
11:00 PM 75 °F 74 °F 96% 29.86 in 0 mi SSE 2.3 mph - - Rain Rain
11:00 PM 75.2 °F 73.4 °F 94% 29.86 in 0.3 mi SSE 2.3 mph - N/A Rain Rain